Tracking 25620 objects as of 19-May-2022
HD Live streaming from Space Station
objects crossing your sky now

ARIANE 5 R/B

Track ARIANE 5 R/B now!


NORAD ID: 37208
Int'l Code: 2010-056C
Perigee: 271.1 km
Apogee: 31,343.2 km
Inclination: 2.9 °
Period: 547.8 minutes
Semi major axis: 22178 km
RCS: 23.4894 m2 (large)
Launch date: October 28, 2010
Source: France (FR)
Launch site: FRENCH GUIANA (FRGUI)

Note: This is a ROCKET BODY
aabbcc
Your satellite tracking list
Your tracking list is empty




NASA's NSSDC Master Catalog

Two Line Element Set (TLE):
1 37208U 10056C   22138.48377141  .00001970  00000-0  61956-3 0  9990
2 37208   2.8642  20.0539 7005113 122.2093 323.4924  2.62853878104707
Source of the keplerian elements: AFSPC